User: anonymous   Login
Location: Follega
(52.8850°N, 5.7362°E)
Time: 17:37:34
(UTC+00:00)
Language:

Cosmos 1943 Rocket - Orbit

View from above orbital plane
View from above orbital plane
View from above satellite
View from above satellite

Ground track
Ground track

The orbit data is extracted from the following two-line orbital elements,

1 19120U 88039B   20227.82784207 -.00000074  00000-0 -12143-4 0  9990
2 19120  71.0134  45.1750 0023411 222.0202 137.9128 14.19207915670209
Epoch (UTC): 14 August 2020 19:52:05
Eccentricity: 0.0023411
inclination: 71.0134°
perigee height: 811 km
apogee height: 845 km
right ascension of ascending node: 45.1750°
argument of perigee: 222.0202°
revolutions per day: 14.19207915
mean anomaly at epoch: 137.9128°
orbit number at epoch: 67020

The dashed part of the orbit path shows where the satellite is in the earth's shadow,  

DLR